SB KEPS @ AMSAT $ORB11118.N 2Line Orbital Elements 11118.AMSAT
HR AMSAT ORBITAL ELEMENTS FOR AMATEUR SATELLITES IN NASA FORMAT FROM WA5QGD FORT WORTH,TX April 28, 2011 Send Subscribe/unsubscribe to KEPS at http://www.amsat.org/mailman/listinfo/keps BID: ORB11118.N
DECODE 2-LINE ELSETS WITH THE FOLLOWING KEY: 1 AAAAAU 00 0 0 BBBBB.BBBBBBBB .CCCCCCCC 00000-0 00000-0 0 DDDZ 2 AAAAA EEE.EEEE FFF.FFFF GGGGGGG HHH.HHHH III.IIII JJ.JJJJJJJJKKKKKZ KEY: A-CATALOGNUM B-EPOCHTIME C-DECAY D-ELSETNUM E-INCLINATION F-RAAN G-ECCENTRICITY H-ARGPERIGEE I-MNANOM J-MNMOTION K-ORBITNUM Z-CHECKSUM
TO ALL RADIO AMATEURS BT
AO-07 1 07530U 74089B 11118.43696520 -.00000027 00000-0 10000-3 0 647 2 07530 101.3933 126.9414 0011979 018.2003 341.9500 12.53582095667950 FO-29 1 24278U 96046B 11118.95229912 .00000088 00000-0 12462-3 0 5618 2 24278 098.5393 269.7297 0351135 024.9623 336.8049 13.52961002725802 SO-33 1 25509U 98061B 11118.47333666 -.00000157 00000-0 -44725-4 0 9547 2 25509 031.4306 165.4891 0353697 166.8667 194.1443 14.28388845653165 RS-22 1 27939U 03042A 11118.58885146 .00000300 00000-0 66307-4 0 2088 2 27939 097.8538 334.9437 0014114 138.0910 222.1381 14.63564319405086 VO-52 1 28650U 05017B 11117.72857188 .00000367 00000-0 52461-4 0 7795 2 28650 097.6467 163.1062 0026254 329.3928 030.5732 14.82018652323270 SO-67 1 35870U 09049F 11118.61381524 .00002191 00000-0 10302-3 0 7841 2 35870 097.2860 163.6176 0002415 156.4700 350.3544 15.20604434 89406 HO-68 1 36122U 09072B 11117.92145260 -.00000045 00000-0 00000-0 0 03233 2 36122 100.4199 179.4843 0007522 343.1545 016.9315 13.16285626065621 UO-11 1 14781U 84021B 11117.97230235 .00000187 00000-0 31751-4 0 05395 2 14781 098.0108 174.8287 0008163 305.5004 054.5444 14.79947759458365 AO-16 1 20439U 90005D 11118.89883148 .00000129 00000-0 63947-4 0 1754 2 20439 098.3800 070.1756 0010427 314.5703 045.4626 14.31914252110563 LO-19 1 20442U 90005G 11117.93806717 .00000174 00000-0 80317-4 0 01029 2 20442 098.3420 073.7945 0011122 309.1570 050.8623 14.32140920110605 AO-27 1 22825U 93061C 11117.39890291 -.00000101 00000-0 -22733-4 0 08051 2 22825 098.5261 062.9093 0009321 067.4856 292.7304 14.29341044916939 IO-26 1 22826U 93061D 11118.94741172 .00000104 00000-0 57372-4 0 5478 2 22826 098.5222 064.9168 0009837 057.3031 302.9098 14.29603582917277 GO-32 1 25397U 98043D 11117.64480310 .00000049 00000-0 39493-4 0 04672 2 25397 098.3253 112.9170 0002227 077.9555 282.1860 14.23205279664772 NO-44 1 26931U 01043C 11118.51112931 -.00000115 00000-0 -12661-4 0 7384 2 26931 067.0507 111.5268 0007329 264.5178 095.5109 14.29651109499825 SO-50 1 27607U 02058C 11117.51037534 .00000443 00000-0 90236-4 0 04536 2 27607 064.5574 121.6635 0067418 332.6611 027.0959 14.71710507448637 CO-55 1 27844U 03031E 11117.54333597 .00000175 00000-0 10148-3 0 960 2 27844 098.7073 126.9803 0009763 350.4812 009.6187 14.20798097405724 CO-57 1 27848U 03031J 11117.54934058 .00000149 00000-0 89472-4 0 455 2 27848 098.7139 126.1591 0009816 355.2099 004.9000 14.20579263405674 AO-51 1 28375U 04025K 11117.96884958 .00000158 00000-0 60262-4 0 09550 2 28375 098.0940 099.0666 0082731 222.3720 137.1028 14.40750361358832 CP3 1 31129U 07012N 11117.72264669 .00000527 00000-0 13168-3 0 8545 2 31129 097.9030 144.8445 0100608 338.5936 021.1061 14.52453364213518 CO-65 1 32785U 08021C 11118.51989451 .00000581 00000-0 79818-4 0 9755 2 32785 097.8514 183.3542 0014505 342.9338 017.1380 14.81948451162187 KKS-1 1 33493U 09002B 11118.59137893 .00001906 00000-0 24891-3 0 5292 2 33493 098.1175 246.5025 0019625 198.3368 161.7138 14.81584325122171 SOHLA-1 1 33496U 09002E 11117.93889850 .00000282 00000-0 55801-4 0 04076 2 33496 098.0752 228.2922 0005611 287.9847 072.0747 14.69599608121102 TISAT-1 1 36799U 10035E 11118.59778356 .00001155 00000-0 15774-3 0 8049 2 36799 098.1046 186.3499 0016619 078.5979 281.7107 14.80483191 42979 STUDSAT 1 36801U 10035G 11118.87732269 .00002993 00000-0 39798-3 0 1751 2 36801 098.1076 186.4807 0014870 067.5349 292.7433 14.80432763 43004 RAX 1 37223U 0 11089.46431449 .00000660 00000-0 10054-3 0 01224 2 37223 071.9716 212.4675 0019443 068.5267 291.7923 14.77296529019265 OOREOS 1 37224U 10062C 11076.42207246 .00000868 00000-0 13086-3 0 01095 2 37224 071.9712 241.3960 0017800 096.5373 263.7815 14.76929834017329 FAST1 1 37227U 0 11118.26328041 .00000180 00000-0 33720-4 0 00134 2 37227 071.9696 149.3452 0016556 008.7620 351.3794 14.76562880001959 NANOSALD 1 37361U 0 11116.73946851 .00110781 00000-0 10779-1 0 01606 2 37361 071.9704 150.7935 0033612 294.3537 065.3944 14.91486360014433 FAST2 1 37380U 0 11118.40457318 .00000244 00000-0 43099-4 0 01514 2 37380 071.9739 149.0810 0017205 005.4596 354.6718 14.76330642023517 NOAA-10 1 16969U 86073A 11117.67185120 .00000088 00000-0 53713-4 0 04912 2 16969 098.6243 148.1358 0012578 017.1877 342.9726 14.27456459280447 NOAA-11 1 19531U 88089A 11117.78053816 .00000144 00000-0 96990-4 0 04846 2 19531 098.7506 206.1966 0011111 336.6747 023.3904 14.14913577165620 NOAA-12 1 21263U 91032A 11118.82019043 .00000137 00000-0 57754-4 0 9777 2 21263 098.7513 136.7504 0011916 334.5062 025.6017 14.25705231 37423 MET-3/5 1 21655U 91056A 11118.90625117 .00000051 00000-0 10000-3 0 972 2 21655 082.5546 085.5909 0012163 282.5265 077.4439 13.17026587947239 MET-2/21 1 22782U 93055A 11118.79435574 -.00000087 00000-0 -91694-4 0 811 2 22782 082.5515 002.0692 0021127 235.7122 124.2038 13.83657585891721 OKEAN-4 1 23317U 94066A 11118.91154359 .00000704 00000-0 83391-4 0 5399 2 23317 082.5393 059.1452 0020290 283.5955 076.2999 14.83037000893248 NOAA-14 1 23455U 94089A 11117.93062992 .00000009 00000-0 27853-4 0 04779 2 23455 098.8528 201.0634 0010304 063.9455 296.2773 14.13815414841974 NOAA-15 1 25338U 98030A 11117.81776243 .00000026 00000-0 29991-4 0 07934 2 25338 098.6520 104.6599 0009804 236.6715 123.3501 14.24905057673556 RESURS 1 25394U 98043A 11118.93000550 .00000001 00000-0 17994-4 0 7826 2 25394 098.3008 124.6673 0002294 038.6477 321.4868 14.24230684665298 FENGYUN1 1 25730U 99025A 11118.94672059 .00000364 00000-0 23638-3 0 3123 2 25730 098.8165 081.2310 0025026 086.7846 273.6186 14.08597923616133 OKEAN-0 1 25860U 99039A 11117.98823795 .00000338 00000-0 59062-4 0 03122 2 25860 097.8789 085.8295 0001567 102.5762 257.5622 14.73764456633266 NOAA-16 1 26536U 00055A 11117.78791004 .00000040 00000-0 46477-4 0 02752 2 26536 099.1440 147.2973 0010977 169.9718 190.1676 14.12611099546244 NOAA-17 1 27453U 02032A 11117.73575397 .00000066 00000-0 46568-4 0 02690 2 27453 098.3835 159.7502 0010749 299.5495 060.4630 14.24263169459478 NOAA-18 1 28654U 05018A 11117.77011534 .00000498 00000-0 29969-3 0 07490 2 28654 098.9918 068.8045 0013516 246.2734 113.7020 14.11467379305810 NOAA-19 1 33591U 09005A 11117.75624973 .00000322 00000-0 20249-3 0 09413 2 33591 098.8235 058.7654 0014843 116.9600 243.3112 14.11157611114275 HUBBLE 1 20580U 90037B 11118.06210884 .00001309 00000-0 86614-4 0 7535 2 20580 028.4717 343.8766 0003309 306.0738 053.9589 15.01312227952116 ISS 1 25544U 98067A 11118.84018274 .00031309 00000-0 21649-3 0 2664 2 25544 051.6472 054.1762 0002845 153.4725 303.6642 15.74233916713138 CO-58 1 28895U 05043F 11117.62763812 .00000489 00000-0 11082-3 0 08603 2 28895 097.9737 355.9511 0018426 023.1635 337.0401 14.60075490292867 FALCON 1 30776U 07006E 11118.80635425 .00002536 00000-0 18048-3 0 745 2 30776 035.4342 287.2091 0001748 345.7040 014.3631 15.04483575227605 MAST 1 31126U 07012K 11118.96061487 .00000284 00000-0 74484-4 0 1454 2 31126 097.9007 148.9601 0093979 324.6714 034.8279 14.53728372213933 CAPE1 1 31130U 07012P 11118.55642730 .00000408 00000-0 10431-3 0 1628 2 31130 097.9015 145.4191 0101948 336.0196 023.6270 14.52364071213433 COMPASS 1 32787U 08021E 11118.32860633 .00001062 00000-0 13921-3 0 9719 2 32787 097.8501 183.0664 0015674 343.1319 016.9369 14.82333619162175 AAUSAT2 1 32788U 08021F 11117.82601903 .00001598 00000-0 20518-3 0 09632 2 32788 097.8502 182.7806 0014756 345.5914 014.4846 14.82513747162117 DO-64 1 32789U 08021G 11118.25559567 .00001873 00000-0 23708-3 0 9785 2 32789 097.8611 184.1144 0014706 342.1914 017.8771 14.82919754162187 CO-66 1 32791U 08021J 11117.65992217 .00000705 00000-0 95268-4 0 09654 2 32791 097.8509 182.3657 0015781 344.3730 015.7002 14.82039273162025 RS-30 1 32953U 08025A 11118.24440354 .00000010 00000-0 00000 0 0 6790 2 32953 082.5043 193.7667 0020187 133.5175 226.7585 12.43012263132889 TACSAT-3 1 35001U 09028A 11117.49063276 .00018256 00000-0 34804-3 0 05873 2 35001 040.4530 120.3085 0022679 195.4942 164.5182 15.47403559109220 PHARMSAT 1 35002U 09028B 11117.38344353 .00015814 00000-0 30337-3 0 05425 2 35002 040.4691 118.5023 0024613 200.1448 159.8399 15.47247468109238 HAWKSAT1 1 35003U 09028C 11117.35343559 .00064917 00000-0 78510-3 0 06019 2 35003 040.4535 096.7204 0022379 225.4827 134.4165 15.59426424109472 CP6 1 35004U 09028D 11117.93887603 .00087110 00000-0 88830-3 0 06024 2 35004 040.4533 086.8814 0022153 234.3978 125.4775 15.63711430109627 METEOR-M 1 35865U 09049A 11118.25807802 .00000176 00000-0 10000-3 0 3197 2 35865 098.7106 174.0226 0002631 156.6224 203.5074 14.21837408 83493 RS-38 1 35869U 09049E 11118.19386059 .00000177 00000-0 10000-3 0 3225 2 35869 098.7074 173.9969 0004622 166.9139 193.2139 14.22008244 83490 /EX